Tracking 28336 objects as of 4-Dec-2023
HD Live streaming from Space Station
objects crossing your sky now

SUPERBIRD A

Track SUPERBIRD A now!
SUPERBIRD A is classified as:


NORAD ID: 20040
Int'l Code: 1989-041A
Perigee: 35,926.1 km
Apogee: 35,953.0 km
Inclination: 13.3 °
Period: 1,443.6 minutes
Semi major axis: 42310 km
RCS: 4.409 m2 (large)
Launch date: June 5, 1989
Source: Japan (JPN)
Launch site: FRENCH GUIANA (FRGUI)
Your satellite tracking list
Your tracking list is empty




NASA's NSSDC Master Catalog

Two Line Element Set (TLE):
1 20040U 89041A   23337.36924461 -.00000336  00000-0  00000-0 0  9994
2 20040  13.2515 338.8699 0003184 131.3390 234.2485  0.99753940125223
Source of the keplerian elements: AFSPC